Volver al catálogo

COSMOS 1275 DEB

ActivoPO
NORAD 12728·DEBRIS·🇷🇺 Russia

Lanzado Jun 4, 1981 desde Plesetsk Cosmodrome

Loading…

Próximos Pases (próximas 24 horas)

TLE

ActualizadoSource: Space-Track

Época: Sep 14, 2026, 07:32 UTC

1 12728U 81053BV  26257.31413711  .00000360  00000-0  34014-3 0  9994
2 12728  82.8105  12.5103 0053413 316.1437  72.3480 13.78138188250570

Sigue COSMOS 1275 DEB en tiempo real con AllMySat

Download on the App Store